Simultaneous Nadir Overpasses (SNOs) Predictions

Prediction of SNOs between GOES-16 and METOP-C Satellite Orbit:

Table of predicted SNOs for the next 14.0 days since TLE Epoch: 2/21/2025
Index Date Time (GOES-16) GOES-16 Lat,Lon METOP-C Lat,Lon Distance(km) Time Diff (sec)
1 02/23/2025 14:28:55 0.02, -75.22 -0.10, -74.82 46.04 80
2 02/25/2025 02:50:33 -0.03, -75.19 -0.99, -79.40 480.84 80
3 02/26/2025 02:27:14 -0.03, -75.19 0.18, -74.41 89.15 80
4 02/27/2025 14:46:03 0.03, -75.24 0.86, -78.97 424.67 80
5 02/28/2025 14:28:03 0.03, -75.25 -0.26, -73.97 145.85 80
6 03/02/2025 02:47:02 -0.03, -75.23 -0.76, -78.56 379.66 80
7 03/03/2025 02:23:41 -0.03, -75.24 0.36, -73.57 190.98 80
8 03/04/2025 14:42:31 0.03, -75.29 0.66, -78.12 322.18 80
9 03/05/2025 14:24:30 0.03, -75.30 -0.47, -73.12 248.73 80
10 03/07/2025 02:43:28 -0.02, -75.29 -0.59, -77.71 276.12 80
